Location: Clermont
(50.2608°N, 4.3172°E)
Time: 10:40:23
(UTC+00:00)

Cosmos 1725 Rocket - Pass Details

Date: 13 August 2020
Orbit: 961 x 991 km, 82.9° (Epoch: 20 September)

Event Time Altitude Azimuth Distance (km) Brightness Sun altitude
Exits shadow 22:49:24 32° 221° (SW) 1,643 4.9 -24.2°
Maximum altitude 22:52:16 56° 285° (WNW) 1,165 4.5 -24.3°
Drops below altitude 10° 22:58:31 10° 3° (N) 2,767 7.3 -24.6°
Sets 23:01:07 0° 8° (N) 3,719 8.2 -24.7°
